N5CSU Weather Reports


time (UTC)temp
C
wind
direction
speed
KPH
gust
KPH
rain 1hr
cm
rain 24hr
cm
rain mn
cm
humidity
%
barometer
mb
20260509175357 28 184 1.6 1.6 0.00 0.00 0.00 66 1010.5
20260509174853 28 203 0.0 0.0 0.00 0.00 0.00 69 1010.5
20260509174344 27 183 0.0 0.0 0.00 0.00 0.00 70 1010.6
20260509173840 27 204 0.0 0.0 0.00 0.00 0.00 70 1010.7
20260509173335 27 211 0.0 0.0 0.00 0.00 0.00 69 1010.5
20260509172832 27 183 0.0 0.0 0.00 0.00 0.00 70 1010.7
20260509172329 27 204 0.0 0.0 0.00 0.00 0.00 70 1010.6
20260509171825 27 188 0.0 0.0 0.00 0.00 0.00 72 1010.6
20260509171320 27 215 0.0 0.0 0.00 0.00 0.00 70 1010.7
20260509170817 27 192 0.0 0.0 0.00 0.00 0.00 70 1010.8
20260509170313 27 129 1.6 3.2 0.00 0.00 0.00 71 1010.9
20260509165813 27 179 0.0 0.0 0.00 0.00 0.00 72 1010.6
20260509165307 27 191 0.0 0.0 0.00 0.00 0.00 72 1010.8
20260509164803 27 170 0.0 0.0 0.00 0.00 0.00 71 1010.9
20260509164259 27 185 0.0 0.0 0.00 0.00 0.00 71 1011.1
20260509163756 27 183 0.0 0.0 0.00 0.00 0.00 73 1011.0
20260509163252 27 176 0.0 0.0 0.00 0.00 0.00 73 1010.8
20260509162751 27 186 0.0 0.0 0.00 0.00 0.00 76 1010.8
20260509162245 26 196 1.6 1.6 0.00 0.00 0.00 74 1010.8
20260509161742 26 184 0.0 1.6 0.00 0.00 0.00 72 1010.8
20260509161237 26 183 0.0 0.0 0.00 0.00 0.00 73 1010.9
20260509160732 26 183 0.0 0.0 0.00 0.00 0.00 75 1010.8
20260509160229 26 189 0.0 0.0 0.00 0.00 0.00 74 1010.9
20260509155724 26 189 0.0 0.0 0.00 0.00 0.00 72 1010.9
20260509155221 26 169 0.0 1.6 0.00 0.00 0.00 73 1010.8
20260509154718 26 185 1.6 1.6 0.00 0.00 0.00 75 1010.7
20260509154214 26 164 0.0 0.0 0.00 0.00 0.00 75 1010.7
20260509153711 26 141 1.6 1.6 0.00 0.00 0.00 74 1010.7
20260509153208 25 168 0.0 0.0 0.00 0.00 0.00 75 1010.7
20260509152704 25 169 0.0 0.0 0.00 0.00 0.00 77 1010.5
20260509152200 25 156 0.0 1.6 0.00 0.00 0.00 78 1010.6
20260509151657 25 169 0.0 0.0 0.00 0.00 0.00 77 1010.6
20260509151154 25 176 0.0 0.0 0.00 0.00 0.00 79 1010.5
20260509150652 25 186 0.0 0.0 0.00 0.00 0.00 78 1010.6
20260509150150 25 192 0.0 0.0 0.00 0.00 0.00 80 1010.6
20260509145646 24 175 0.0 0.0 0.00 0.00 0.00 80 1010.8
20260509145141 24 193 0.0 0.0 0.00 0.00 0.00 82 1010.8
20260509144638 24 183 0.0 0.0 0.00 0.00 0.00 81 1010.9
20260509144136 24 188 0.0 0.0 0.00 0.00 0.00 82 1010.9
20260509143633 23 82 0.0 0.0 0.00 0.00 0.00 84 1010.8
20260509143130 23 175 0.0 0.0 0.00 0.00 0.00 83 1010.8
20260509142625 23 172 0.0 0.0 0.00 0.00 0.00 83 1010.9
20260509142122 23 184 0.0 0.0 0.00 0.00 0.00 84 1010.6
20260509141618 23 189 0.0 0.0 0.00 0.00 0.00 85 1010.7
20260509141115 23 199 0.0 0.0 0.00 0.00 0.00 86 1010.6
20260509140612 22 187 0.0 0.0 0.00 0.00 0.00 87 1010.7
20260509140110 22 168 0.0 0.0 0.00 0.00 0.00 87 1010.6
20260509135607 22 185 0.0 0.0 0.00 0.00 0.00 89 1010.6
20260509135105 22 183 0.0 0.0 0.00 0.00 0.00 90 1010.9
20260509134601 22 178 0.0 0.0 0.00 0.00 0.00 90 1010.5
20260509134059 21 165 0.0 0.0 0.00 0.00 0.00 90 1010.4
20260509133555 21 184 0.0 0.0 0.00 0.00 0.00 91 1010.4
20260509133053 21 161 0.0 0.0 0.00 0.00 0.00 91 1010.5
20260509132551 21 179 0.0 0.0 0.00 0.00 0.00 92 1010.5
20260509132049 21 183 0.0 0.0 0.00 0.00 0.00 93 1010.3
20260509131545 20 184 0.0 0.0 0.00 0.00 0.00 94 1010.4
20260509131042 20 181 0.0 0.0 0.00 0.00 0.00 95 1010.4
20260509130537 20 178 0.0 0.0 0.00 0.00 0.00 95 1010.3
20260509130035 20 177 0.0 0.0 0.00 0.00 0.00 96 1010.0
20260509125531 20 169 0.0 0.0 0.00 0.00 0.00 96 1010.3
20260509125027 20 181 0.0 0.0 0.00 0.00 0.00 96 1010.5
20260509124519 20 177 0.0 0.0 0.00 0.00 0.00 97 1010.3
20260509124016 20 174 0.0 0.0 0.00 0.00 0.00 97 1010.4
20260509123514 20 176 0.0 0.0 0.00 0.00 0.00 97 1010.3
20260509123009 20 177 0.0 0.0 0.00 0.00 0.00 97 1010.0
20260509122506 20 177 0.0 0.0 0.00 0.00 0.00 97 1010.4
20260509122003 20 177 0.0 0.0 0.00 0.00 0.00 97 1010.4
20260509121459 20 177 0.0 0.0 0.00 0.00 0.00 97 1010.4
20260509120958 20 177 0.0 0.0 0.00 0.00 0.00 97 1010.3
20260509120455 20 177 0.0 0.0 0.00 0.00 0.00 97 1010.1
20260509115953 20 177 0.0 0.0 0.00 0.00 0.00 96 1010.4
20260509115450 20 178 0.0 0.0 0.00 0.00 0.00 96 1009.9
20260509114948 20 178 0.0 0.0 0.00 0.00 0.00 96 1009.8
20260509114446 20 178 0.0 0.0 0.00 0.00 0.00 96 1009.7
20260509113945 20 178 0.0 0.0 0.00 0.00 0.00 96 1009.5
20260509113442 20 178 0.0 0.0 0.00 0.00 0.00 96 1009.7
20260509112939 20 174 0.0 0.0 0.00 0.00 0.00 96 1009.7
20260509112437 20 174 0.0 0.0 0.00 0.00 0.00 96 1009.7
20260509111933 20 173 0.0 0.0 0.00 0.00 0.00 96 1009.3
20260509111431 20 173 0.0 0.0 0.00 0.00 0.00 96 1009.4
20260509110928 20 173 0.0 0.0 0.00 0.00 0.00 96 1009.3
20260509110424 20 174 0.0 0.0 0.00 0.00 0.00 96 1009.2
20260509105922 20 175 0.0 0.0 0.00 0.00 0.00 96 1009.3
20260509105420 20 175 0.0 0.0 0.00 0.00 0.00 96 1009.4
20260509104917 20 175 0.0 0.0 0.00 0.00 0.00 95 1009.2
20260509104413 20 175 0.0 0.0 0.00 0.00 0.00 95 1009.5
20260509103911 21 175 0.0 0.0 0.00 0.00 0.00 95 1009.4
20260509103408 20 175 0.0 0.0 0.00 0.00 0.00 95 1009.2
20260509102906 21 175 0.0 0.0 0.00 0.00 0.00 95 1009.3
20260509102403 21 175 0.0 0.0 0.00 0.00 0.00 95 1009.3
20260509101859 21 175 0.0 0.0 0.00 0.00 0.00 95 1009.3
20260509101355 21 175 0.0 0.0 0.00 0.00 0.00 95 1009.2
20260509100853 21 175 0.0 0.0 0.00 0.00 0.00 94 1009.1
20260509100350 21 174 0.0 0.0 0.00 0.00 0.00 94 1009.1
20260509095847 21 174 0.0 0.0 0.00 0.00 0.00 94 1008.8
20260509095345 21 172 0.0 0.0 0.00 0.00 0.00 94 1008.8
20260509094842 20 32 0.0 0.0 0.00 0.00 0.00 94 1008.5
20260509094338 21 176 0.0 0.0 0.00 0.00 0.00 94 1008.3
20260509093836 20 173 0.0 0.0 0.00 0.00 0.00 94 1008.7
20260509093333 20 112 0.0 0.0 0.00 0.00 0.00 94 1008.3
20260509092832 20 202 0.0 0.0 0.00 0.00 0.00 94 1007.5
20260509092329 20 205 0.0 0.0 0.00 0.00 0.00 94 1007.5
20260509091826 20 204 0.0 0.0 0.00 0.00 0.00 94 1007.0
20260509091324 20 196 0.0 0.0 0.00 0.00 0.00 94 1006.8
20260509090820 20 210 0.0 0.0 0.00 0.00 0.00 94 1006.7
20260509090318 20 175 0.0 0.0 0.00 0.00 0.00 94 1007.0
20260509085814 20 193 0.0 0.0 0.00 0.00 0.00 95 1006.8
20260509085313 20 178 0.0 0.0 0.00 0.00 0.00 95 1007.1
20260509084809 20 195 0.0 0.0 0.00 0.00 0.00 95 1007.5
20260509084306 20 192 0.0 0.0 0.00 0.00 0.00 95 1007.9
20260509083803 20 185 0.0 0.0 0.00 0.00 0.00 95 1008.0
20260509083300 20 190 0.0 0.0 0.00 0.00 0.00 95 1008.4
20260509082756 20 190 0.0 0.0 0.00 0.00 0.00 95 1008.8
20260509082253 20 182 0.0 0.0 0.00 0.00 0.00 95 1009.2
20260509081750 20 199 0.0 0.0 0.00 0.00 0.00 95 1009.5
20260509081248 20 185 0.0 0.0 0.00 0.00 0.00 94 1009.5
20260509080746 20 182 0.0 0.0 0.00 0.00 0.00 94 1009.7
20260509080243 20 182 0.0 0.0 0.00 0.00 0.00 94 1009.9
20260509075742 20 182 0.0 0.0 0.00 0.00 0.00 94 1009.8
20260509075238 20 182 0.0 0.0 0.00 0.00 0.00 94 1010.1
20260509074735 20 182 0.0 0.0 0.00 0.00 0.00 94 1010.0
20260509074233 20 182 0.0 0.0 0.00 0.00 0.00 94 1010.4
20260509073729 20 182 0.0 0.0 0.00 0.00 0.00 94 1010.5
20260509073225 20 182 0.0 0.0 0.00 0.00 0.00 94 1010.6
20260509072722 20 182 0.0 0.0 0.00 0.00 0.00 93 1010.6
20260509072219 20 182 0.0 0.0 0.00 0.00 0.00 94 1010.8
20260509071716 20 181 0.0 0.0 0.00 0.00 0.00 94 1011.0
20260509071213 20 192 0.0 0.0 0.00 0.00 0.00 94 1011.1
20260509070710 20 192 0.0 0.0 0.00 0.00 0.00 93 1011.1
20260509070206 20 192 0.0 0.0 0.00 0.00 0.00 93 1010.8
20260509065702 20 190 0.0 0.0 0.00 0.00 0.00 93 1010.4
20260509065158 20 185 0.0 0.0 0.00 0.00 0.00 92 1010.2
20260509064655 20 185 0.0 0.0 0.00 0.00 0.00 92 1010.2
20260509064153 20 185 0.0 0.0 0.00 0.00 0.00 92 1010.3
20260509063650 20 185 0.0 0.0 0.00 0.00 0.00 92 1010.4
20260509063146 20 185 0.0 0.0 0.00 0.00 0.00 92 1010.7
20260509062644 20 185 0.0 0.0 0.00 0.00 0.00 91 1010.6
20260509062141 20 186 0.0 0.0 0.00 0.00 0.00 91 1010.6
20260509061637 20 186 0.0 0.0 0.00 0.00 0.00 91 1010.6
20260509061135 20 186 0.0 0.0 0.00 0.00 0.00 91 1010.8
20260509060632 21 171 0.0 0.0 0.00 0.00 0.00 91 1010.8
20260509060128 21 171 0.0 0.0 0.00 0.00 0.00 90 1011.0
20260509055624 21 171 0.0 0.0 0.00 0.00 0.00 90 1011.1
20260509055120 21 171 0.0 0.0 0.00 0.00 0.00 90 1011.1
20260509054617 21 170 0.0 0.0 0.00 0.00 0.00 90 1011.3
20260509054115 21 170 0.0 0.0 0.00 0.00 0.00 90 1011.6
20260509053613 21 170 0.0 0.0 0.00 0.00 0.00 89 1011.8
20260509053110 21 170 0.0 0.0 0.00 0.00 0.00 89 1011.5
20260509052608 21 180 0.0 0.0 0.00 0.00 0.00 89 1011.1
20260509052105 21 180 0.0 0.0 0.00 0.00 0.00 88 1010.6
20260509051603 21 180 0.0 0.0 0.00 0.00 0.00 88 1010.3
20260509051100 21 169 0.0 0.0 0.00 0.00 0.00 87 1010.4
20260509050556 21 191 0.0 0.0 0.00 0.00 0.00 87 1010.2
20260509050053 22 174 0.0 0.0 0.00 0.00 0.00 87 1010.3
20260509045551 22 172 0.0 0.0 0.00 0.00 0.00 87 1010.5
20260509045047 22 172 0.0 0.0 0.00 0.00 0.00 86 1010.6
20260509044545 21 193 0.0 0.0 0.00 0.00 0.00 87 1010.2
20260509044042 21 191 0.0 0.0 0.00 0.00 0.00 87 1010.2
20260509043538 21 195 0.0 0.0 0.00 0.00 0.00 87 1010.1
20260509043034 21 201 0.0 0.0 0.00 0.00 0.00 87 1010.4
20260509042530 21 177 0.0 0.0 0.00 0.00 0.00 87 1010.5
20260509042026 21 177 0.0 0.0 0.00 0.00 0.00 86 1010.5
20260509041523 22 177 0.0 0.0 0.00 0.00 0.00 86 1010.7
20260509041021 22 177 0.0 0.0 0.00 0.00 0.00 86 1011.0
20260509040519 22 177 0.0 0.0 0.00 0.00 0.00 86 1011.0
20260509040016 22 173 0.0 0.0 0.00 0.00 0.00 85 1011.0
20260509035513 22 171 0.0 0.0 0.00 0.00 0.00 85 1010.9
20260509035009 22 171 0.0 0.0 0.00 0.00 0.00 85 1010.7
20260509034507 22 169 0.0 0.0 0.00 0.00 0.00 85 1010.5
20260509033958 22 149 0.0 0.0 0.00 0.00 0.00 85 1010.1
20260509033455 22 201 0.0 0.0 0.00 0.00 0.00 85 1010.0
20260509032952 22 190 0.0 0.0 0.00 0.00 0.00 84 1010.3
20260509032449 22 190 0.0 0.0 0.00 0.00 0.00 84 1010.3
20260509031947 22 191 0.0 0.0 0.00 0.00 0.00 84 1010.2
20260509031444 22 191 0.0 0.0 0.00 0.00 0.00 84 1010.3
20260509030941 22 200 0.0 0.0 0.00 0.00 0.00 84 1010.1
20260509030439 22 189 0.0 0.0 0.00 0.00 0.00 84 1010.1
20260509025936 22 189 0.0 0.0 0.00 0.00 0.00 84 1010.0
20260509025432 21 188 0.0 0.0 0.00 0.00 0.00 84 1009.9
20260509024927 21 180 0.0 0.0 0.00 0.00 0.00 84 1009.9
20260509024423 21 192 0.0 0.0 0.00 0.00 0.00 84 1009.5
20260509023920 21 191 0.0 0.0 0.00 0.00 0.00 84 1009.4
20260509023418 21 197 0.0 0.0 0.00 0.00 0.00 83 1009.4
20260509022914 21 197 0.0 0.0 0.00 0.00 0.00 83 1009.5
20260509022411 22 198 0.0 0.0 0.00 0.00 0.00 83 1009.4
20260509021909 22 195 0.0 0.0 0.00 0.00 0.00 83 1009.5
20260509021405 22 181 0.0 0.0 0.00 0.00 0.00 83 1009.2
20260509020903 22 194 0.0 0.0 0.00 0.00 0.00 82 1009.2
20260509020401 22 194 0.0 0.0 0.00 0.00 0.00 82 1009.2
20260509015857 22 194 0.0 0.0 0.00 0.00 0.00 82 1009.1
20260509015356 22 194 0.0 0.0 0.00 0.00 0.00 82 1009.3
20260509014852 22 196 0.0 0.0 0.00 0.00 0.00 82 1009.5
20260509014349 22 197 0.0 0.0 0.00 0.00 0.00 82 1009.3
20260509013846 22 195 0.0 0.0 0.00 0.00 0.00 82 1009.3
20260509013342 22 196 0.0 0.0 0.00 0.00 0.00 81 1009.2
20260509012838 22 195 0.0 0.0 0.00 0.00 0.00 81 1009.3
20260509012335 22 195 0.0 0.0 0.00 0.00 0.00 81 1009.3
20260509011833 22 195 0.0 0.0 0.00 0.00 0.00 80 1009.2
20260509011330 22 195 0.0 0.0 0.00 0.00 0.00 80 1009.1
20260509010827 22 188 0.0 0.0 0.00 0.00 0.00 80 1009.0
20260509010324 22 191 0.0 0.0 0.00 0.00 0.00 80 1008.7
20260509005821 22 197 0.0 0.0 0.00 0.00 0.00 80 1008.4
20260509005319 22 189 0.0 0.0 0.00 0.00 0.00 80 1008.5
20260509004814 22 193 0.0 0.0 0.00 0.00 0.00 80 1008.5
20260509004310 22 187 0.0 0.0 0.00 0.00 0.00 80 1008.3
20260509003809 22 196 0.0 0.0 0.00 0.00 0.00 79 1008.7
20260509003306 22 187 0.0 0.0 0.00 0.00 0.00 79 1008.7
20260509002803 22 187 0.0 0.0 0.00 0.00 0.00 79 1008.7
20260509002300 22 192 0.0 0.0 0.00 0.00 0.00 79 1008.5
20260509001758 22 191 0.0 0.0 0.00 0.00 0.00 78 1008.8
20260509001254 22 179 0.0 0.0 0.00 0.00 0.00 78 1008.7
20260509000752 22 182 0.0 0.0 0.00 0.00 0.00 78 1008.7
20260509000249 22 194 0.0 0.0 0.00 0.00 0.00 78 1008.8
20260508235746 22 189 0.0 0.0 0.00 0.00 0.00 78 1008.7
20260508235242 22 203 0.0 0.0 0.00 0.00 0.00 77 1008.9
20260508234740 22 197 0.0 0.0 0.00 0.00 0.00 77 1009.0
20260508234235 22 195 0.0 0.0 0.00 0.00 0.00 77 1009.1
20260508233730 22 192 0.0 0.0 0.00 0.00 0.00 77 1009.0
20260508233227 22 181 0.0 0.0 0.00 0.00 0.00 77 1009.1
20260508232724 23 186 0.0 0.0 0.00 0.00 0.00 76 1009.1
20260508232221 23 185 0.0 0.0 0.00 0.00 0.00 76 1009.0
20260508231719 23 183 0.0 0.0 0.00 0.00 0.00 75 1009.0
20260508231215 23 193 0.0 0.0 0.00 0.00 0.00 75 1009.1
20260508230713 23 173 0.0 0.0 0.00 0.00 0.00 76 1008.8
20260508230208 23 178 0.0 1.6 0.00 0.00 0.00 75 1009.1
20260508225707 23 183 0.0 0.0 0.00 0.00 0.00 74 1009.2
20260508225202 23 195 0.0 0.0 0.00 0.00 0.00 74 1009.0
20260508224701 23 210 0.0 0.0 0.00 0.00 0.00 73 1009.1
20260508224158 23 193 0.0 0.0 0.00 0.00 0.00 74 1009.3
20260508223655 23 190 0.0 0.0 0.00 0.00 0.00 74 1009.1
20260508223152 23 185 0.0 0.0 0.00 0.00 0.00 74 1009.3
20260508222650 23 166 0.0 0.0 0.00 0.00 0.00 73 1009.2
20260508222147 23 199 0.0 0.0 0.00 0.00 0.00 73 1009.4
20260508221643 23 192 0.0 0.0 0.00 0.00 0.00 73 1009.2
20260508221139 23 239 0.0 0.0 0.00 0.00 0.00 74 1009.1
20260508220636 23 181 0.0 0.0 0.00 0.00 0.00 74 1009.2
20260508220132 23 200 0.0 0.0 0.00 0.00 0.00 74 1009.2
20260508215629 23 193 0.0 0.0 0.00 0.00 0.00 73 1009.3
20260508215126 23 205 0.0 0.0 0.00 0.00 0.00 72 1009.2
20260508214623 23 195 0.0 0.0 0.00 0.00 0.00 75 1009.3
20260508214120 23 203 0.0 0.0 0.00 0.00 0.00 73 1009.0
20260508213616 22 197 0.0 0.0 0.00 0.00 0.00 75 1009.1
20260508213113 22 167 0.0 0.0 0.00 0.00 0.00 77 1009.1
20260508212609 22 209 0.0 0.0 0.00 0.00 0.00 78 1008.9
20260508212106 21 199 0.0 0.0 0.00 0.00 0.00 81 1009.2
20260508211601 21 207 0.0 0.0 0.00 0.00 0.00 81 1009.4
20260508211057 21 174 0.0 0.0 0.00 0.00 0.00 85 1008.8
20260508210554 21 173 0.0 0.0 0.00 0.00 0.00 81 1010.0
20260508210051 22 242 0.0 0.0 0.00 0.00 0.00 77 1009.9
20260508205549 22 189 0.0 0.0 0.00 0.00 0.00 77 1010.2
20260508205045 22 189 0.0 0.0 0.00 0.00 0.00 76 1010.7
20260508204541 22 189 0.0 0.0 0.00 0.00 0.00 76 1010.7
20260508204037 22 189 0.0 0.0 0.00 0.00 0.00 76 1010.9
20260508203534 22 185 0.0 0.0 0.00 0.00 0.00 77 1011.1
20260508203030 22 175 0.0 0.0 0.00 0.00 0.00 75 1011.3
20260508202527 22 199 0.0 0.0 0.00 0.00 0.00 75 1011.2
20260508202024 22 194 0.0 0.0 0.00 0.00 0.00 76 1011.2
20260508201520 22 194 0.0 0.0 0.00 0.00 0.00 75 1011.2
20260508201017 22 190 0.0 0.0 0.00 0.00 0.00 74 1011.0
20260508200514 22 196 0.0 0.0 0.00 0.00 0.00 74 1011.0
20260508200010 23 189 0.0 0.0 0.00 0.00 0.00 74 1011.0
20260508195507 23 172 0.0 0.0 0.00 0.00 0.00 73 1010.9
20260508195003 23 185 0.0 0.0 0.00 0.00 0.00 75 1010.9
20260508194500 23 185 0.0 0.0 0.00 0.00 0.00 75 1010.8
20260508193957 23 184 0.0 0.0 0.00 0.00 0.00 71 1011.1
20260508193453 23 210 0.0 0.0 0.00 0.00 0.00 72 1011.2
20260508192950 23 202 0.0 0.0 0.00 0.00 0.00 70 1011.2
20260508192447 23 192 0.0 0.0 0.00 0.00 0.00 71 1011.2
20260508191943 23 197 0.0 0.0 0.00 0.00 0.00 71 1011.2
20260508191441 23 194 0.0 0.0 0.00 0.00 0.00 72 1011.3
20260508190937 23 180 1.6 3.2 0.00 0.00 0.00 71 1011.3
20260508190435 23 177 0.0 0.0 0.00 0.00 0.00 71 1011.3
20260508185931 23 192 0.0 0.0 0.00 0.00 0.00 71 1011.6
20260508185429 23 147 0.0 0.0 0.00 0.00 0.00 70 1011.6
20260508184926 23 173 0.0 1.6 0.00 0.00 0.00 70 1011.5
20260508184423 23 139 0.0 1.6 0.00 0.00 0.00 70 1011.5
20260508183919 23 197 0.0 0.0 0.00 0.00 0.00 69 1011.7
20260508183416 23 195 0.0 0.0 0.00 0.00 0.00 67 1011.8
20260508182911 24 195 0.0 0.0 0.00 0.00 0.00 67 1011.7
20260508182409 24 168 0.0 1.6 0.00 0.00 0.00 70 1011.5
20260508181904 24 168 0.0 0.0 0.00 0.00 0.00 67 1011.8
20260508181401 24 196 0.0 1.6 0.00 0.00 0.00 68 1011.9
20260508180858 23 201 0.0 0.0 0.00 0.00 0.00 67 1012.1
20260508180354 23 189 0.0 0.0 0.00 0.00 0.00 71 1012.1
20260508175845 23 189 0.0 0.0 0.00 0.00 0.00 69 1012.1